Temp
70 68 67 69 59 52 46 50 55 55 56 59 60 60 57 57 56 51 67 71 71 70 72 73 74 75 75 75 74 75 75 76 76 76 75 76 76 76 76 76 75 76 76 76 76 75 74 74 74
67 73 69 60 51 44 46 51 55 57 60 60 61 59 57 54 62 63 64 71 72 71 72 72 72 74 75 74 74 75 75 76 76 76 76 76 75 76 76 75 76 75 76 76 75 75 74 73 73
71 72 65 55 47 45 47 53 56 59 60 59 58 60 58 58 62 65 69 71 71 71 72 71 72 74 74 74 74 74 75 75 75 76 75 76 75 75 75 75 75 75 76 76 75 74 73 73 72
69 68 61 53 47 49 54 57 59 59 58 61 58 55 60 66 67 69 72 72 70 70 71 70 72 74 74 74 74 74 74 75 75 75 76 75 75 75 74 74 74 75 75 75 74 73 72 72 73
66 61 52 49 47 51 54 59 61 60 59 57 57 52 56 66 69 71 71 72 69 69 69 70 72 73 73 74 74 74 74 74 74 75 75 74 75 74 74 74 74 74 74 73 73 72 71 71 71
62 58 49 46 48 54 56 59 60 57 57 58 57 56 56 65 68 68 73 74 72 69 70 69 68 70 71 72 73 73 73 73 73 74 74 74 74 74 74 74 73 74 74 73 72 71 71 70 70
57 53 48 47 50 53 57 61 59 59 59 56 60 54 56 62 68 69 70 70 71 71 69 69 69 68 67 69 70 71 72 72 72 72 72 72 72 72 72 72 73 73 73 73 72 71 70 70 70
58 56 48 47 50 53 60 59 61 59 57 62 63 54 56 63 69 68 69 67 68 68 68 67 67 68 68 67 66 67 69 69 70 69 68 67 68 68 69 68 70 72 73 72 72 71 70 70 70
61 52 47 50 52 55 60 59 59 60 61 58 60 59 63 68 67 65 63 64 65 67 67 67 67 67 67 67 67 64 65 66 66 66 65 64 65 66 65 65 66 70 71 71 71 70 69 68 67
55 48 50 55 55 57 60 60 61 59 56 56 57 61 64 65 64 63 62 62 63 64 66 66 66 66 66 69 67 66 67 68 65 65 64 64 64 64 65 62 63 66 66 68 70 70 68 64 60
54 50 54 57 58 60 60 58 59 57 53 58 58 60 62 62 63 63 63 63 64 65 65 66 66 66 66 66 65 65 65 66 67 67 64 63 64 62 62 61 61 61 60 62 63 63 63 61 59
52 56 56 58 59 59 58 61 57 57 60 64 63 64 63 62 62 63 62 63 64 64 66 66 66 65 65 65 65 65 65 64 64 65 67 66 64 61 60 60 60 60 60 60 60 59 60 60 60
52 54 57 57 59 58 60 54 54 56 59 61 62 62 62 63 62 63 64 64 64 63 65 66 65 65 65 64 64 64 64 64 64 64 65 64 63 65 64 63 60 60 59 59 59 59 59 59 59
53 55 55 56 56 57 57 53 55 56 56 58 60 59 60 60 62 59 61 63 62 64 64 65 65 65 65 64 64 64 64 64 64 64 64 65 64 63 62 64 64 62 60 60 59 59 59 58 59
55 49 52 53 54 54 57 51 54 54 58 57 58 58 60 61 61 62 63 63 63 63 63 63 63 63 62 63 64 64 64 65 64 64 64 65 65 65 66 63 63 64 64 63 62 62 61 60 61
47 47 43 49 51 53 53 45 55 57 58 57 56 55 58 60 62 62 63 63 63 62 62 61 64 60 60 60 60 61 63 63 63 63 64 64 65 67 67 65 65 66 65 64 63 62 61 61 61
42 35 39 47 53 50 49 45 51 54 54 56 55 55 56 58 59 60 61 60 60 59 59 58 58 57 58 58 58 58 60 60 62 62 63 64 64 67 67 66 66 66 64 63 63 62 62 61 61
37 38 39 41 46 47 45 46 51 50 50 52 51 53 53 54 58 59 59 57 55 55 55 55 55 55 56 56 56 56 57 57 58 59 61 63 64 65 65 66 67 66 64 63 62 62 62 61 61
45 39 37 39 47 44 44 44 49 51 47 49 50 51 51 53 56 57 56 54 53 52 53 53 54 53 53 53 53 54 54 55 57 58 59 61 62 65 64 63 64 63 61 63 64 63 62 60 60
40 37 35 41 46 43 41 42 46 48 48 50 52 52 52 52 54 54 52 51 51 51 51 51 52 51 52 52 52 53 53 55 56 56 56 56 57 60 60 60 60 61 61 62 61 61 60 60 60
38 36 35 39 41 40 39 36 41 48 47 50 51 54 54 55 53 51 50 49 48 48 48 50 50 50 50 51 53 53 55 54 53 53 52 52 53 54 56 57 57 57 57 57 58 58 59 58 58
35 43 43 40 36 30 37 24 34 41 45 47 49 52 55 54 52 52 51 47 46 47 47 48 49 49 50 50 51 53 52 49 49 49 50 49 50 50 50 52 53 51 53 53 53 56 56 58 58
39 44 43 41 35 31 28 29 32 36 39 46 51 52 50 51 51 53 51 50 47 46 45 45 46 47 47 48 49 49 48 47 47 48 47 47 47 47 48 48 48 48 51 50 48 50 50 54 55
46 41 40 37 34 26 32 31 28 37 44 45 49 50 51 50 49 51 48 47 45 44 44 44 45 45 46 46 47 47 47 46 45 44 43 43 43 43 44 46 45 45 45 45 45 45 45 45 48
41 37 23 21 21 21 30 30 39 43 46 47 50 52 50 46 46 44 46 45 44 43 43 44 44 43 44 44 44 44 44 44 43 42 41 41 41 40 40 42 42 42 42 43 42 42 42 42 41
40 39 29 21 20 22 30 26 34 43 46 48 50 50 49 47 45 45 45 44 43 42 42 43 42 41 42 42 41 41 42 41 40 40 39 39 38 38 40 40 41 41 41 41 40 40 40 39 39
38 37 41 30 19 19 27 32 40 44 45 44 47 46 48 47 44 44 43 44 43 41 41 41 40 40 40 40 39 39 39 39 38 38 38 37 39 42 39 39 38 38 38 39 38 37 37 38 37
41 45 32 30 16 13 26 27 32 37 43 45 45 46 46 43 44 44 43 42 42 41 41 40 40 39 39 39 39 39 38 38 37 37 37 37 37 37 37 37 37 36 36 36 36 35 36 36 36
38 37 38 37 28 19 17 26 37 42 43 45 44 47 46 45 44 44 43 42 41 40 39 39 39 38 38 38 37 36 36 36 35 34 34 34 35 36 36 36 35 35 34 34 34 34 34 34 33
45 41 41 32 25 28 28 31 44 43 44 43 45 47 46 45 45 44 43 41 41 40 39 38 37 37 37 36 36 35 34 34 33 32 33 34 33 34 34 34 34 33 32 32 32 32 32 31 31
MSLP
1011.47 1011.30 1011.42 1011.93 1013.89 1015.38 1016.43 1016.41 1016.15 1016.14 1016.39 1016.56 1016.50 1016.86 1017.64 1018.17 1018.40 1018.98 1018.36 1018.61 1018.77 1019.22 1019.41 1019.60 1019.80 1020.01 1020.18 1020.32 1020.39 1020.46 1020.47 1020.57 1020.79 1020.88 1020.96 1021.02 1021.01 1020.96 1020.95 1021.01 1021.13 1021.04 1020.99 1021.01 1020.96 1020.97 1020.98 1021.04 1021.10
1011.51 1011.40 1011.84 1013.15 1014.92 1016.54 1016.94 1016.48 1016.38 1016.17 1016.45 1016.77 1016.83 1017.36 1017.84 1018.45 1018.31 1018.49 1018.63 1018.78 1018.76 1019.13 1019.49 1019.72 1019.91 1020.12 1020.29 1020.43 1020.54 1020.63 1020.69 1020.75 1020.95 1021.07 1021.15 1021.24 1021.31 1021.30 1021.32 1021.36 1021.39 1021.46 1021.36 1021.31 1021.36 1021.38 1021.43 1021.44 1021.42
1011.30 1011.40 1012.72 1014.06 1015.80 1016.66 1016.64 1016.32 1016.30 1016.30 1016.46 1016.76 1017.32 1017.65 1017.99 1018.41 1018.37 1018.30 1018.15 1018.59 1018.96 1019.29 1019.57 1019.82 1019.98 1020.16 1020.39 1020.54 1020.67 1020.74 1020.82 1020.94 1021.11 1021.26 1021.37 1021.45 1021.54 1021.57 1021.59 1021.66 1021.66 1021.66 1021.56 1021.50 1021.64 1021.70 1021.74 1021.79 1021.74
1011.51 1012.06 1013.84 1014.51 1015.93 1016.10 1015.97 1015.90 1016.15 1016.60 1016.77 1016.95 1017.29 1018.13 1018.16 1018.01 1018.04 1017.99 1018.30 1018.54 1019.02 1019.34 1019.60 1019.91 1020.05 1020.22 1020.43 1020.65 1020.82 1020.92 1021.00 1021.10 1021.25 1021.40 1021.50 1021.65 1021.74 1021.88 1021.91 1021.97 1022.02 1021.87 1021.88 1021.78 1021.98 1021.98 1022.02 1022.00 1021.83
1012.06 1013.10 1014.61 1015.59 1015.95 1015.82 1015.70 1015.68 1015.91 1016.52 1016.94 1017.30 1017.38 1018.34 1018.39 1018.05 1017.85 1018.09 1018.38 1018.55 1019.02 1019.46 1019.61 1019.93 1020.12 1020.28 1020.51 1020.69 1020.87 1021.02 1021.15 1021.24 1021.32 1021.44 1021.61 1021.78 1021.90 1022.03 1022.14 1022.14 1022.24 1022.24 1022.22 1022.30 1022.32 1022.33 1022.37 1022.38 1022.25
1013.14 1014.08 1015.48 1016.14 1016.01 1015.78 1015.64 1015.67 1015.76 1016.39 1016.95 1017.47 1017.79 1018.21 1018.62 1018.32 1018.28 1018.40 1018.42 1018.59 1018.78 1019.24 1019.66 1019.94 1020.23 1020.39 1020.58 1020.75 1020.90 1021.06 1021.18 1021.26 1021.39 1021.51 1021.64 1021.79 1021.96 1022.09 1022.21 1022.28 1022.36 1022.41 1022.45 1022.48 1022.55 1022.62 1022.64 1022.68 1022.66
1013.89 1014.95 1015.96 1016.29 1016.28 1015.92 1015.71 1015.61 1015.82 1016.40 1016.91 1017.24 1017.50 1018.55 1018.82 1018.58 1018.50 1018.49 1018.50 1018.46 1018.80 1019.25 1019.65 1019.99 1020.23 1020.45 1020.65 1020.82 1020.97 1021.11 1021.24 1021.36 1021.50 1021.65 1021.72 1021.83 1021.96 1022.12 1022.25 1022.34 1022.38 1022.42 1022.47 1022.56 1022.69 1022.75 1022.80 1022.82 1022.84
1014.35 1015.25 1016.28 1016.41 1016.22 1015.85 1015.64 1015.76 1016.03 1016.27 1016.95 1017.05 1017.24 1018.22 1018.74 1018.34 1018.44 1018.72 1018.85 1018.95 1019.14 1019.40 1019.54 1019.90 1020.18 1020.42 1020.65 1020.82 1020.98 1021.16 1021.31 1021.46 1021.58 1021.73 1021.88 1022.01 1022.08 1022.19 1022.32 1022.45 1022.53 1022.55 1022.58 1022.65 1022.73 1022.84 1022.88 1022.90 1022.93
1014.48 1015.52 1016.39 1016.27 1016.09 1015.71 1015.51 1015.95 1016.25 1016.37 1016.81 1017.33 1017.48 1017.65 1017.41 1017.86 1018.49 1018.96 1019.39 1019.50 1019.52 1019.68 1019.73 1019.79 1020.11 1020.34 1020.55 1020.81 1020.96 1021.15 1021.34 1021.51 1021.65 1021.81 1021.95 1022.05 1022.19 1022.32 1022.42 1022.51 1022.60 1022.65 1022.65 1022.68 1022.71 1022.80 1022.87 1022.94 1022.98
1015.13 1016.04 1015.93 1015.85 1015.63 1015.49 1015.42 1015.60 1016.16 1016.59 1017.17 1017.60 1017.80 1017.86 1017.72 1018.13 1018.68 1019.08 1019.37 1019.55 1019.56 1019.66 1019.64 1019.64 1019.94 1020.22 1020.42 1020.57 1020.80 1021.04 1021.23 1021.33 1021.56 1021.74 1021.92 1022.09 1022.19 1022.30 1022.36 1022.51 1022.54 1022.57 1022.58 1022.61 1022.63 1022.68 1022.74 1022.84 1022.97
1015.62 1015.99 1015.94 1015.78 1015.68 1015.46 1015.39 1015.84 1016.07 1016.39 1017.28 1017.18 1017.35 1018.11 1018.29 1018.53 1018.85 1019.12 1019.30 1019.26 1019.19 1019.28 1019.49 1019.53 1019.64 1019.94 1020.29 1020.46 1020.60 1020.87 1021.05 1021.13 1021.21 1021.42 1021.69 1021.88 1022.06 1022.23 1022.35 1022.46 1022.47 1022.46 1022.48 1022.58 1022.55 1022.58 1022.66 1022.78 1022.88
1015.86 1015.83 1015.85 1015.86 1015.73 1015.72 1015.99 1015.98 1016.20 1016.49 1016.26 1016.22 1016.94 1017.24 1018.18 1018.58 1018.78 1018.86 1019.00 1019.09 1019.12 1019.22 1019.18 1019.24 1019.41 1019.73 1019.95 1020.20 1020.44 1020.51 1020.74 1020.87 1020.92 1020.99 1021.09 1021.44 1021.71 1021.97 1022.12 1022.25 1022.23 1022.31 1022.26 1022.37 1022.47 1022.57 1022.57 1022.59 1022.58
1016.13 1016.17 1016.00 1016.02 1015.94 1016.05 1016.16 1016.67 1016.84 1016.52 1016.61 1016.63 1017.37 1017.84 1018.13 1018.47 1018.67 1018.77 1018.72 1018.82 1019.02 1019.17 1019.00 1018.97 1019.16 1019.49 1019.65 1020.02 1020.16 1020.38 1020.45 1020.56 1020.42 1020.61 1020.71 1020.88 1021.15 1021.22 1021.44 1021.69 1021.93 1022.02 1022.08 1022.17 1022.28 1022.42 1022.47 1022.46 1022.36
1016.66 1016.75 1016.50 1016.40 1016.33 1016.31 1016.49 1016.86 1016.73 1016.75 1016.93 1017.33 1017.63 1017.99 1018.28 1018.50 1018.56 1018.86 1019.09 1018.92 1018.93 1018.93 1018.90 1018.80 1018.97 1019.09 1019.42 1019.61 1019.80 1019.96 1020.04 1020.05 1020.24 1020.31 1020.34 1020.44 1020.62 1020.81 1020.91 1020.89 1021.15 1021.50 1021.65 1021.71 1021.91 1022.05 1022.16 1022.14 1022.09
1017.28 1017.45 1017.36 1017.06 1016.90 1016.78 1016.75 1017.29 1017.17 1017.12 1017.31 1017.86 1018.17 1018.37 1018.61 1018.63 1018.76 1018.68 1018.56 1018.67 1018.64 1018.66 1018.77 1018.89 1018.89 1018.97 1019.22 1019.33 1019.41 1019.58 1019.63 1019.75 1019.89 1019.92 1019.98 1020.06 1020.21 1020.37 1020.41 1020.71 1020.73 1020.75 1020.98 1021.18 1021.41 1021.53 1021.67 1021.72 1021.62
1018.23 1018.27 1018.50 1017.98 1017.58 1017.42 1017.51 1017.66 1017.37 1017.38 1017.68 1018.15 1018.51 1018.68 1018.72 1018.58 1018.40 1018.33 1018.25 1018.54 1018.59 1018.74 1018.93 1019.07 1019.10 1019.27 1019.36 1019.33 1019.30 1019.31 1019.30 1019.41 1019.45 1019.59 1019.69 1019.79 1019.88 1019.92 1020.01 1020.25 1020.38 1020.20 1020.51 1020.76 1020.96 1021.08 1021.26 1021.27 1021.23
1019.48 1019.25 1019.26 1018.76 1018.14 1018.17 1018.38 1018.38 1017.99 1017.92 1018.14 1018.47 1018.55 1018.79 1018.71 1018.49 1018.42 1018.36 1018.32 1018.48 1018.68 1018.71 1019.01 1019.33 1019.54 1019.66 1019.62 1019.48 1019.42 1019.30 1019.20 1019.19 1019.12 1019.27 1019.40 1019.37 1019.51 1019.45 1019.62 1019.81 1019.90 1020.00 1020.13 1020.33 1020.47 1020.66 1020.78 1020.74 1020.68
1019.86 1019.93 1019.53 1019.01 1018.81 1018.79 1018.99 1019.02 1018.37 1018.52 1018.70 1018.78 1018.90 1018.88 1018.92 1018.72 1018.21 1018.23 1018.40 1018.66 1018.94 1019.07 1019.19 1019.48 1019.63 1019.59 1019.58 1019.56 1019.49 1019.35 1019.22 1019.12 1019.14 1019.12 1019.12 1019.12 1019.20 1019.26 1019.36 1019.48 1019.51 1019.65 1019.78 1020.00 1020.15 1020.26 1020.38 1020.43 1020.35
1019.60 1019.98 1019.92 1019.64 1019.35 1019.52 1019.48 1019.55 1019.05 1018.78 1019.08 1019.00 1018.94 1018.84 1018.88 1018.63 1018.11 1018.24 1018.63 1018.88 1019.11 1019.45 1019.53 1019.55 1019.78 1019.88 1019.89 1019.88 1019.78 1019.59 1019.53 1019.49 1019.51 1019.33 1019.11 1018.98 1019.11 1019.14 1019.30 1019.48 1019.73 1019.78 1020.13 1020.15 1020.10 1020.07 1020.13 1020.13 1020.01
1020.03 1020.33 1020.40 1020.21 1019.89 1020.27 1020.21 1019.90 1019.46 1019.01 1018.75 1018.52 1018.53 1018.31 1018.17 1018.28 1018.21 1018.41 1018.81 1019.16 1019.22 1019.48 1019.81 1019.98 1020.04 1020.05 1019.93 1019.89 1019.71 1019.58 1019.62 1019.83 1019.88 1019.89 1019.89 1019.80 1019.65 1019.63 1019.72 1019.84 1019.98 1020.05 1020.14 1020.15 1020.15 1020.15 1020.15 1019.92 1019.74
1020.41 1020.52 1020.73 1020.83 1020.78 1020.93 1021.03 1020.36 1019.65 1018.62 1018.29 1017.94 1017.77 1017.56 1017.36 1017.39 1017.87 1018.38 1018.93 1019.05 1019.18 1019.43 1019.74 1020.06 1020.13 1020.09 1020.01 1019.98 1019.76 1019.72 1019.79 1020.03 1020.27 1020.38 1020.53 1020.61 1020.44 1020.44 1020.24 1020.24 1020.34 1020.48 1020.59 1020.76 1020.69 1020.42 1020.14 1019.96 1019.70
1020.60 1020.58 1020.94 1021.38 1022.01 1022.29 1022.04 1021.12 1019.94 1018.93 1018.18 1017.73 1017.16 1016.76 1016.53 1016.75 1017.17 1017.70 1018.30 1018.90 1019.21 1019.31 1019.72 1019.97 1020.05 1020.02 1020.08 1019.95 1019.66 1019.59 1019.91 1020.51 1020.90 1021.03 1021.26 1021.29 1021.18 1021.15 1021.21 1020.89 1020.91 1021.14 1021.21 1021.28 1021.24 1020.88 1020.59 1020.23 1019.98
1020.24 1020.45 1021.06 1021.70 1022.60 1023.15 1023.04 1023.01 1019.57 1019.00 1018.25 1017.14 1016.29 1015.97 1015.87 1016.07 1016.60 1016.96 1017.60 1018.35 1019.05 1019.57 1019.93 1020.14 1020.10 1020.27 1020.31 1020.14 1019.86 1019.94 1020.34 1020.83 1021.21 1021.49 1021.67 1021.82 1021.87 1021.83 1021.76 1021.67 1021.75 1021.73 1021.59 1021.67 1021.69 1021.45 1021.15 1020.77 1020.57
1020.10 1020.96 1021.78 1022.49 1023.40 1023.69 1022.96 1023.08 1019.41 1018.61 1017.02 1016.15 1015.55 1015.28 1015.38 1015.62 1015.97 1016.53 1017.35 1018.33 1019.26 1019.81 1020.15 1020.18 1020.37 1020.74 1020.66 1020.53 1020.41 1020.56 1020.92 1021.36 1021.74 1022.10 1022.33 1022.50 1022.55 1022.59 1022.45 1022.37 1022.37 1022.35 1022.32 1022.09 1022.16 1022.08 1021.72 1021.46 1021.33
1019.89 1021.09 1022.68 1023.80 1024.40 1023.33 1022.69 1022.57 1018.14 1017.46 1016.26 1015.76 1015.28 1015.02 1015.30 1015.55 1016.23 1016.85 1017.51 1018.25 1019.12 1019.67 1020.07 1020.39 1020.63 1021.04 1021.11 1021.02 1021.00 1021.18 1021.42 1021.68 1022.08 1022.40 1022.68 1022.90 1023.05 1023.23 1023.17 1022.96 1022.95 1022.86 1022.74 1022.53 1022.63 1022.57 1022.44 1022.24 1022.11
1019.33 1020.27 1021.41 1022.72 1023.92 1023.45 1022.97 1021.09 1017.86 1016.58 1015.73 1015.30 1014.92 1015.09 1015.37 1015.73 1016.25 1016.79 1017.35 1018.05 1018.84 1019.53 1019.97 1020.32 1020.72 1021.22 1021.42 1021.38 1021.50 1021.74 1022.00 1022.27 1022.53 1022.76 1022.98 1023.20 1023.34 1023.43 1023.37 1023.36 1023.27 1023.16 1023.00 1023.10 1023.08 1023.10 1023.05 1022.89 1022.81
1019.27 1019.75 1020.65 1022.20 1023.90 1023.91 1021.98 1019.95 1017.77 1016.07 1015.38 1015.11 1015.08 1015.17 1015.29 1015.68 1016.33 1016.93 1017.61 1018.04 1018.67 1019.41 1019.95 1020.30 1020.76 1021.24 1021.47 1021.49 1021.64 1021.96 1022.23 1022.56 1022.88 1023.10 1023.26 1023.38 1023.47 1023.39 1023.51 1023.42 1023.43 1023.46 1023.52 1023.56 1023.50 1023.54 1023.53 1023.41 1023.39
1017.87 1018.94 1020.53 1021.76 1023.25 1023.12 1021.04 1019.76 1017.37 1016.03 1015.46 1014.94 1015.15 1015.20 1015.43 1015.87 1016.51 1017.08 1017.62 1018.20 1018.95 1019.45 1019.89 1020.37 1020.80 1021.17 1021.50 1021.70 1021.88 1022.15 1022.43 1022.77 1023.10 1023.33 1023.53 1023.67 1023.70 1023.67 1023.62 1023.63 1023.63 1023.80 1023.85 1023.78 1023.81 1023.95 1023.91 1023.85 1023.92
1018.23 1018.39 1019.13 1020.08 1021.43 1021.51 1020.67 1018.17 1016.02 1015.36 1015.19 1015.07 1015.10 1015.11 1015.39 1015.90 1016.43 1016.95 1017.52 1018.21 1018.83 1019.31 1019.78 1020.18 1020.68 1021.07 1021.44 1021.61 1021.86 1022.22 1022.60 1022.90 1023.22 1023.51 1023.78 1023.94 1023.89 1023.80 1023.78 1023.88 1024.11 1024.21 1024.10 1024.18 1024.25 1024.29 1024.31 1024.33 1024.47
1017.41 1017.50 1018.42 1019.12 1020.22 1020.26 1019.49 1016.19 1015.10 1014.91 1014.93 1014.79 1014.79 1014.97 1015.17 1015.71 1016.26 1016.90 1017.63 1018.22 1018.71 1019.20 1019.69 1020.13 1020.58 1020.86 1021.09 1021.40 1021.75 1022.17 1022.51 1022.80 1023.16 1023.48 1023.76 1023.92 1023.92 1023.93 1024.01 1024.15 1024.28 1024.45 1024.51 1024.60 1024.57 1024.66 1024.81 1024.88 1025.03
Wind_Speed
8 5 2 5 6 7 1 1 1 2 4 5 3 6 8 4 2 4 2 9 11 7 7 7 10 10 10 10 8 8 8 12 10 9 8 8 9 10 10 10 9 7 11 10 11 11 11 10 10
5 2 5 3 7 4 3 3 4 3 6 7 6 4 6 3 2 4 4 8 11 9 6 6 10 10 11 10 9 7 6 11 10 9 9 9 7 7 8 9 8 7 7 10 10 11 10 8 7
2 1 5 5 5 5 5 4 5 5 8 2 5 4 3 2 2 6 6 10 9 8 7 7 10 10 10 9 9 8 7 8 9 8 8 8 8 8 7 6 7 7 4 7 8 8 8 7 5
3 5 5 6 4 2 6 7 5 7 2 4 4 7 2 1 5 6 12 11 9 7 7 8 10 10 10 8 7 7 7 8 8 7 8 7 8 7 6 5 3 6 4 7 7 6 7 8 4
4 4 5 5 2 1 1 5 9 7 5 2 1 3 2 4 3 11 11 11 10 6 6 7 10 10 9 8 8 6 5 5 5 7 7 5 7 7 6 5 3 3 3 3 5 5 5 6 8
5 3 6 4 2 2 2 4 4 3 3 4 6 5 0 2 6 7 9 10 10 10 7 6 8 9 9 8 7 6 6 5 4 5 7 7 7 7 6 6 5 3 2 2 3 2 3 4 5
6 4 4 5 5 3 3 5 7 7 6 2 8 5 1 1 6 6 6 7 8 8 8 6 6 7 8 8 7 8 7 6 5 4 5 7 7 7 7 7 6 6 5 3 3 2 2 3 3
5 4 4 3 5 5 5 3 5 4 3 4 5 6 6 6 8 6 4 6 7 6 7 7 6 6 5 5 7 7 7 6 6 5 5 5 6 6 6 6 6 7 7 6 4 4 4 4 5
2 5 3 7 7 4 4 6 0 1 6 3 2 5 5 9 8 6 4 2 3 3 5 6 6 6 6 5 5 6 6 7 6 5 5 4 3 4 5 5 6 8 8 8 7 7 6 6 6
6 4 2 1 3 6 5 6 9 5 3 3 3 4 6 9 7 8 7 7 5 6 6 6 6 6 6 5 5 5 5 4 4 4 4 3 4 4 4 5 6 7 9 9 8 8 8 5 2
2 4 1 3 2 5 7 5 1 10 2 7 11 9 8 6 7 9 8 7 9 6 4 7 7 6 6 5 4 3 3 3 4 5 5 5 3 3 3 3 3 3 5 4 4 4 3 4 3
3 1 1 4 5 3 5 6 4 3 6 8 10 16 9 10 10 11 9 8 6 6 8 7 7 6 7 4 4 4 4 4 3 4 7 4 3 4 4 3 4 4 3 5 4 3 4 5 5
2 2 3 3 5 5 6 4 2 4 5 6 9 7 11 10 9 7 8 7 6 7 8 8 6 7 6 6 4 4 5 4 5 5 5 4 4 4 4 4 3 4 3 4 4 4 4 4 5
1 3 3 3 3 3 5 2 2 1 3 7 10 10 7 8 10 4 6 8 7 8 8 6 8 7 6 6 6 5 4 5 4 4 5 6 5 4 4 4 5 4 4 4 4 4 4 4 4
2 3 4 4 3 2 4 2 5 0 5 7 8 7 7 9 6 10 9 8 8 5 5 5 5 4 6 6 5 4 5 4 4 5 6 6 5 5 6 4 4 5 5 6 4 4 3 4 4
4 5 3 3 1 2 3 7 7 5 7 8 7 6 6 8 10 9 8 7 7 6 7 4 3 3 1 2 3 3 4 4 4 4 4 6 6 7 4 4 4 4 4 4 3 4 4 5 4
6 4 4 5 7 2 4 6 3 5 5 8 8 8 8 9 8 8 6 6 6 5 7 5 3 2 1 2 3 3 4 4 4 3 4 6 6 7 5 4 3 3 3 4 4 4 4 4 4
6 5 5 6 3 3 4 8 7 2 5 9 7 8 8 8 12 6 6 6 6 5 5 4 2 3 3 3 2 1 2 3 2 3 4 5 4 4 3 3 4 3 3 3 3 5 3 4 4
6 4 4 2 2 1 7 7 12 7 4 8 9 8 8 10 7 5 5 6 7 4 5 4 3 2 2 1 0 1 0 1 3 4 5 2 2 3 4 3 1 2 2 4 4 2 2 3 3
3 4 4 3 4 2 4 8 9 8 7 9 11 10 10 6 6 6 7 6 5 5 4 3 3 1 1 1 2 1 2 3 3 4 7 8 7 6 5 4 4 4 3 4 3 1 2 2 3
3 6 4 3 4 2 5 7 7 9 4 7 8 11 9 14 11 8 9 9 7 7 6 5 3 1 1 2 2 2 3 3 2 3 4 7 8 7 7 6 5 5 4 4 4 4 3 3 2
6 6 5 3 4 4 2 8 6 6 9 7 11 13 17 12 8 9 10 7 8 7 6 5 4 2 2 3 2 4 3 3 1 3 3 5 8 8 6 7 7 5 4 5 4 4 2 3 5
6 7 8 5 3 2 1 4 8 3 7 13 14 14 12 11 11 14 13 11 6 6 6 5 5 4 3 3 4 4 5 4 3 3 6 6 6 7 7 7 6 5 4 4 5 5 5 2 2
7 6 6 5 3 6 8 8 6 7 10 5 6 8 8 8 10 9 7 8 6 6 6 5 6 3 4 5 6 6 7 6 4 3 4 3 3 4 6 5 5 5 4 5 4 4 6 5 4
3 8 2 3 1 9 2 7 13 9 12 8 9 9 6 3 6 7 11 11 9 8 7 6 6 4 3 5 6 6 6 6 6 5 3 4 2 3 4 4 5 4 4 5 4 5 5 5 3
8 8 6 8 6 5 2 9 8 8 9 10 9 7 4 5 7 9 11 10 9 8 8 7 7 6 5 5 6 6 6 3 4 4 3 3 3 3 2 4 4 5 5 5 4 3 3 4 4
6 10 6 5 3 2 5 7 9 11 11 5 8 5 8 7 7 7 7 9 9 8 7 8 7 6 6 6 6 6 5 5 5 5 4 3 3 3 3 4 5 5 5 4 4 4 4 4 4
8 10 3 2 2 5 5 6 9 4 9 7 5 8 6 3 5 6 7 7 6 6 6 7 6 7 6 6 5 5 5 5 5 4 4 4 3 3 4 5 5 5 5 5 5 4 4 5 4
5 6 5 5 6 6 3 7 8 9 6 8 7 8 7 7 7 7 6 6 7 6 7 7 7 7 7 6 6 6 5 5 5 4 4 4 3 3 4 5 4 4 5 4 5 5 5 6 6
13 11 12 6 5 5 3 12 5 7 6 4 6 6 6 6 7 7 6 7 8 7 7 8 7 7 7 6 6 6 6 6 5 5 4 3 4 3 4 5 5 4 4 4 5 5 5 6 6
Wind_Direction
328 327 127 49 58 64 29 267 245 141 58 332 71 114 120 54 99 180 296 162 130 144 139 141 136 132 130 127 119 115 143 136 123 121 111 102 96 101 99 104 106 83 81 88 90 84 78 73 73
310 145 46 84 86 83 268 258 197 183 148 156 86 76 49 84 96 119 95 148 146 140 137 139 139 138 137 131 128 134 134 126 127 133 131 119 111 114 111 95 109 100 87 85 79 74 66 56 49
261 65 84 91 105 150 174 193 178 157 148 162 102 67 93 91 73 164 135 146 135 140 145 148 150 148 147 140 133 132 140 145 135 135 144 136 126 128 114 110 105 111 101 115 88 73 60 43 30
37 15 37 83 133 211 178 182 182 119 343 50 117 69 43 191 175 176 147 144 142 148 149 160 158 154 153 148 141 136 139 145 147 145 153 154 150 146 140 135 60 157 135 105 97 72 52 26 344
33 55 60 76 90 85 165 170 158 142 129 76 81 134 55 0 132 135 148 152 147 153 151 163 163 157 158 158 156 154 157 160 179 164 161 166 164 158 156 161 106 90 118 99 87 62 51 35 43
40 85 65 116 98 56 32 166 111 95 102 152 83 94 192 19 118 171 158 160 159 156 159 161 169 164 168 173 175 177 176 179 189 184 176 175 183 186 183 187 181 177 182 33 104 57 31 25 21
96 73 150 135 153 128 179 161 130 132 135 167 148 93 207 196 164 163 168 137 150 148 151 163 169 177 180 184 187 193 194 194 195 199 204 196 192 201 201 203 199 209 220 220 190 210 309 314 334
94 85 103 183 179 183 171 89 134 106 108 112 142 165 181 213 161 147 130 135 136 152 160 168 175 177 183 190 203 205 204 202 205 212 223 239 215 211 217 216 228 229 230 234 227 224 253 280 292
105 66 145 191 155 179 191 124 293 39 106 55 356 160 190 152 129 115 108 116 141 179 180 168 178 187 188 198 209 211 217 213 215 224 228 237 218 231 234 235 236 250 250 243 236 225 232 257 285
72 78 211 170 212 180 175 142 149 117 114 39 51 36 104 128 149 157 168 183 188 198 198 184 182 195 187 199 199 206 208 203 204 212 218 217 222 224 225 238 251 254 257 257 253 241 240 250 253
138 147 298 1 318 171 156 125 89 122 227 205 171 162 147 150 168 173 191 188 199 200 193 195 190 192 191 204 191 188 198 209 194 204 206 212 212 223 232 241 253 251 254 253 262 261 247 237 242
93 274 163 343 356 83 132 124 121 209 209 179 174 157 160 170 182 188 197 206 191 191 208 203 201 191 201 195 200 198 193 208 204 204 195 189 200 208 223 226 234 236 228 236 234 240 248 250 247
68 298 74 111 71 67 78 54 267 248 349 129 131 158 174 182 195 209 210 211 206 209 216 213 190 204 203 203 209 210 212 212 214 203 210 186 203 196 195 215 221 230 219 221 232 237 244 250 252
59 30 331 17 87 60 103 345 55 327 74 140 156 188 191 192 203 203 217 233 213 221 224 220 201 200 191 209 209 217 216 223 218 217 218 208 201 215 211 200 202 215 214 218 219 224 234 240 242
102 100 21 334 344 122 131 304 225 110 106 153 181 197 210 220 202 215 217 212 194 203 171 175 168 183 203 219 225 220 224 216 220 222 226 223 209 215 212 220 208 208 208 215 211 224 219 233 234
85 58 114 282 184 341 93 244 246 213 150 195 210 226 236 241 222 224 211 199 192 164 162 122 102 106 183 232 236 236 232 221 226 225 227 233 228 229 217 207 238 205 195 207 205 219 231 233 223
7 171 172 297 217 121 154 251 253 213 200 222 219 229 236 252 256 242 234 213 198 161 146 135 124 134 307 298 277 269 265 245 239 231 226 235 230 237 197 208 238 220 208 204 213 225 220 240 238
192 190 231 201 210 193 182 252 265 208 183 224 241 255 259 255 251 236 194 163 143 128 120 121 103 34 348 316 296 283 296 286 304 267 246 251 245 261 223 206 239 260 249 244 219 219 203 239 240
129 148 180 251 236 198 236 237 258 246 245 257 251 249 244 245 253 225 178 158 134 126 133 138 132 19 20 316 336 48 60 32 45 20 5 303 174 116 73 63 15 19 311 276 280 270 257 254 222
133 155 200 287 339 158 277 263 255 258 233 209 235 248 237 229 217 200 175 175 170 154 150 132 127 74 4 278 230 145 119 75 71 55 46 37 45 43 73 65 39 24 335 322 344 315 281 262 208
175 174 166 187 349 15 328 280 234 253 222 243 248 244 242 222 208 196 194 196 175 171 169 160 149 83 11 294 213 108 89 55 44 25 46 31 40 38 42 60 64 44 29 23 6 359 280 248 277
220 178 154 113 72 239 55 283 280 253 262 242 245 241 246 234 200 192 200 189 187 182 156 145 134 94 31 337 105 155 149 130 78 70 70 52 40 43 33 44 44 54 38 32 348 346 353 336 280
212 155 164 150 167 4 233 301 268 278 280 255 252 245 240 231 200 202 195 183 183 152 160 150 107 74 34 47 82 101 98 88 95 80 76 59 45 39 35 40 39 39 41 37 22 6 0 10 342
143 87 58 62 101 261 193 181 230 212 224 262 254 251 252 238 199 199 159 135 145 154 150 135 114 75 60 71 74 101 113 123 116 106 90 74 58 37 35 41 46 44 43 43 33 24 31 26 33
133 118 47 357 314 236 323 203 263 288 258 233 259 270 315 265 193 162 162 162 161 168 159 146 136 127 108 95 86 95 112 117 122 127 124 117 89 42 35 43 45 44 47 51 43 44 40 31 45
175 157 161 198 198 255 112 230 253 246 278 260 269 273 254 187 185 181 177 169 161 163 168 160 153 148 145 120 103 92 91 92 94 104 108 104 102 100 66 73 65 58 55 55 52 49 52 47 47
184 204 155 103 50 47 228 284 289 265 272 267 279 266 248 217 195 183 167 172 167 166 175 165 160 161 165 143 124 113 115 113 115 103 99 104 117 119 91 89 84 68 66 69 69 65 61 61 54
176 155 137 96 213 270 258 257 233 284 244 262 270 263 263 219 189 178 181 171 160 165 170 170 172 175 168 142 133 129 126 117 115 111 113 114 111 112 113 101 89 81 72 66 74 64 50 69 56
154 188 200 146 158 191 260 255 220 234 234 249 235 257 244 218 206 201 187 167 172 174 178 180 178 171 170 161 148 138 133 125 120 127 135 146 135 130 120 112 96 90 84 74 89 79 64 76 70
222 218 197 196 219 239 233 251 224 225 227 200 219 263 276 217 205 202 180 173 186 189 185 189 190 186 180 164 150 153 149 148 148 149 149 152 140 133 143 129 112 95 85 86 90 91 80 84 79